TimeCDT,TemperatureF,Dew PointF,Humidity,Sea Level PressureIn,VisibilityMPH,Wind Direction,Wind SpeedMPH,Gust SpeedMPH,PrecipitationIn,Events,Conditions,WindDirDegrees,DateUTC
12:58 AM,82.8,78.3,86,30.00,10.0,WSW,5.8,-,N/A,,Partly Cloudy,250,2013-08-01 05:58:00
1:58 AM,82.4,78.3,87,29.99,10.0,Variable,2.3,-,N/A,,Partly Cloudy,0,2013-08-01 06:58:00
2:58 AM,81.3,76.8,86,29.98,10.0,Variable,4.6,-,N/A,,Clear,0,2013-08-01 07:58:00
3:58 AM,81.0,76.5,86,29.97,10.0,WSW,4.6,-,N/A,,Clear,250,2013-08-01 08:58:00
4:58 AM,81.3,77.5,88,29.98,10.0,West,3.5,-,N/A,,Clear,260,2013-08-01 09:58:00
5:58 AM,80.6,77.7,91,30.00,10.0,West,3.5,-,N/A,,Partly Cloudy,260,2013-08-01 10:58:00
6:58 AM,81.0,77.9,90,30.01,10.0,West,3.5,-,N/A,,Partly Cloudy,280,2013-08-01 11:58:00
7:58 AM,82.4,76.1,81,30.02,10.0,Variable,3.5,-,N/A,,Clear,0,2013-08-01 12:58:00
8:58 AM,84.0,74.3,72,30.03,10.0,Variable,2.3,-,N/A,,Partly Cloudy,0,2013-08-01 13:58:00
9:58 AM,86.5,73.9,66,30.02,10.0,Variable,5.8,-,N/A,,Partly Cloudy,0,2013-08-01 14:58:00
10:58 AM,89.2,75.4,63,30.02,10.0,Variable,2.3,-,N/A,,Clear,0,2013-08-01 15:58:00
11:58 AM,90.9,77.0,64,30.00,10.0,Variable,4.6,-,N/A,,Partly Cloudy,0,2013-08-01 16:58:00
12:58 PM,91.8,76.6,61,29.99,10.0,Variable,4.6,-,N/A,,Scattered Clouds,0,2013-08-01 17:58:00
1:58 PM,91.8,75.6,59,29.97,10.0,Variable,2.3,-,N/A,,Scattered Clouds,0,2013-08-01 18:58:00
2:58 PM,91.2,74.7,58,29.94,10.0,Variable,5.8,-,N/A,,Clear,0,2013-08-01 19:58:00
3:58 PM,91.9,75.0,58,29.93,10.0,Variable,5.8,-,N/A,Thunderstorm,Scattered Clouds,0,2013-08-01 20:58:00
4:40 PM,89.6,77.0,66,29.94,10.0,East,13.8,-,N/A,Rain-Thunderstorm,Light Rain,100,2013-08-01 21:40:00
4:47 PM,87.8,77.0,70,29.94,10.0,ESE,13.8,-,N/A,Rain-Thunderstorm,Light Rain,110,2013-08-01 21:47:00
4:48 PM,87.8,77.0,70,29.94,10.0,ESE,15.0,-,N/A,Thunderstorm,Mostly Cloudy,110,2013-08-01 21:48:00
4:58 PM,85.8,76.3,73,29.94,10.0,East,6.9,-,0.00,Thunderstorm,Scattered Clouds,90,2013-08-01 21:58:00
5:58 PM,85.1,75.7,73,29.95,10.0,East,3.5,-,N/A,,Clear,100,2013-08-01 22:58:00
6:58 PM,81.7,74.8,80,29.95,10.0,NNE,5.8,-,N/A,,Scattered Clouds,30,2013-08-01 23:58:00
7:58 PM,79.7,74.5,84,29.94,10.0,NE,4.6,-,N/A,,Scattered Clouds,40,2013-08-02 00:58:00
8:28 PM,78.8,73.4,83,29.94,8.0,Variable,4.6,-,N/A,,Clear,0,2013-08-02 01:28:00
8:33 PM,78.8,73.4,83,29.94,5.0,NNW,4.6,-,N/A,,Haze,330,2013-08-02 01:33:00
8:38 PM,78.8,73.4,83,29.94,5.0,Variable,2.3,-,N/A,,Haze,0,2013-08-02 01:38:00
8:43 PM,78.8,73.4,83,29.94,5.0,WNW,2.3,-,N/A,,Haze,290,2013-08-02 01:43:00
8:58 PM,78.8,72.9,82,29.97,5.0,NE,3.5,-,N/A,,Haze,40,2013-08-02 01:58:00
9:03 PM,78.8,73.4,83,29.96,0.2,NE,4.6,-,N/A,,Haze,40,2013-08-02 02:03:00
9:56 PM,77.0,73.4,89,29.97,7.0,ENE,4.6,-,N/A,,Clear,60,2013-08-02 02:56:00
10:56 PM,78.8,71.6,78,29.98,7.0,Calm,Calm,-,N/A,,Clear,0,2013-08-02 03:56:00
10:57 PM,78.8,71.6,78,29.97,0.2,North,1.2,-,N/A,,Haze,360,2013-08-02 03:57:00
11:58 PM,77.9,72.9,84,29.98,0.2,Calm,Calm,-,N/A,,Haze,0,2013-08-02 04:58:00